SCP
0 0 0 0 0 0 0 0 0 0 0 0 0 0 0 0 0 0 0 0 0 0 0 0 1 1 1 0 0 0 0 0 0 0 0 0 0 0 0 0 0 0 0 0
0 0 0 0 0 0 0 0 0 0 0 0 0 0 0 0 0 0 0 0 0 0 0 0 1 1 1 1 0 0 0 0 0 0 0 0 0 0 0 0 0 0 0 0
0 0 0 0 0 0 0 0 0 0 0 0 0 0 0 0 0 0 0 0 0 0 0 0 0 1 1 1 1 1 1 0 0 0 0 0 0 0 0 0 0 0 0 0
0 0 0 0 0 0 0 0 0 0 0 0 0 0 0 0 0 0 0 0 0 0 0 0 0 1 1 1 1 1 1 1 0 0 0 0 0 0 0 0 0 0 0 0
0 0 0 0 0 0 0 0 0 0 0 0 0 0 0 0 0 0 0 0 0 0 0 0 0 0 1 1 1 1 1 1 1 0 0 0 0 0 0 0 0 0 0 0
0 0 0 0 0 0 0 0 0 0 0 0 0 0 0 0 0 0 0 0 0 0 0 0 0 0 1 1 1 1 1 1 1 1 0 0 0 0 0 0 0 0 0 0
0 0 0 0 0 0 0 0 0 0 0 0 0 0 0 0 0 0 0 0 0 0 0 0 0 0 0 1 1 1 1 1 1 1 1 1 0 0 0 0 0 0 0 0
0 0 0 0 0 0 0 0 0 0 0 0 0 0 0 0 0 0 0 0 0 0 0 0 0 0 0 1 1 1 1 1 1 1 1 1 1 1 0 0 0 0 0 0
0 0 0 0 0 0 0 0 0 0 0 0 0 0 0 0 0 0 0 0 0 0 0 0 0 0 0 0 1 1 1 1 1 1 1 1 1 1 1 0 0 0 0 0
0 0 0 0 0 0 0 0 0 0 0 0 0 0 0 0 0 0 0 0 0 0 0 0 0 0 0 0 1 1 1 1 1 1 0 1 1 1 1 0 0 0 0 0
0 0 0 0 0 0 0 0 0 0 0 0 0 0 0 0 0 0 0 0 0 0 0 0 0 0 0 0 0 1 1 1 1 0 0 0 0 0 0 0 0 0 0 0
0 0 0 0 0 0 0 0 0 0 0 0 0 0 0 0 0 0 0 0 0 0 0 0 0 0 0 0 0 0 0 0 0 0 0 0 0 0 0 0 0 0 0 0
0 0 0 0 0 0 0 0 0 0 0 0 0 0 0 0 0 0 0 0 0 0 0 0 0 0 0 0 0 0 0 0 0 0 0 0 0 0 0 0 0 0 0 0
0 0 0 0 0 0 0 0 0 0 0 0 0 0 0 0 0 0 0 0 0 0 0 0 0 0 0 0 0 0 0 0 0 0 0 0 0 0 0 0 0 0 0 0
0 0 0 0 0 0 0 0 0 0 0 0 0 0 0 0 0 0 0 0 0 0 0 0 0 0 0 0 0 0 0 0 0 0 0 0 0 0 0 0 0 0 0 0
0 0 0 0 0 0 0 0 0 0 0 0 0 0 0 0 0 0 0 0 0 0 0 0 0 0 0 0 0 0 0 0 0 0 0 0 0 0 0 0 0 0 0 0
0 0 0 0 0 0 0 0 0 0 0 0 0 0 0 0 0 0 0 0 0 0 0 0 0 0 0 0 0 0 0 0 0 0 0 0 0 0 0 0 0 0 0 0
0 0 0 0 0 0 0 0 0 0 0 0 0 0 0 0 0 0 0 0 0 0 0 0 0 0 0 0 0 0 0 0 0 0 0 0 0 0 0 0 0 0 0 0
0 0 0 0 0 0 0 0 0 0 0 0 0 0 0 0 0 0 0 0 0 0 0 0 0 0 0 0 0 0 0 0 0 0 0 0 0 0 0 0 0 0 0 0
0 0 0 0 0 0 0 0 0 0 0 0 0 0 0 0 0 0 0 0 0 0 0 0 0 0 0 0 0 0 0 0 0 0 0 0 0 0 0 0 0 0 0 0
0 0 0 0 0 0 0 0 0 0 0 0 0 0 0 0 0 0 0 0 0 0 0 0 0 0 0 0 0 0 0 0 0 0 0 0 0 0 0 0 0 0 0 0
0 0 0 0 0 0 0 0 0 0 0 0 0 0 0 0 0 0 0 0 0 0 0 0 0 0 0 0 0 0 0 0 0 0 0 0 0 0 0 0 0 0 0 0
0 0 0 0 0 0 0 0 0 0 0 0 0 0 0 0 0 0 0 0 0 0 0 0 0 0 0 0 0 0 0 0 0 0 0 0 0 0 0 0 0 0 0 0
0 0 0 0 0 0 0 0 0 0 0 0 0 0 0 0 0 0 0 0 0 0 0 0 0 0 0 0 0 0 0 0 0 0 0 0 0 0 0 0 0 0 0 0
0 0 0 0 0 0 0 0 0 0 0 0 0 0 0 0 0 0 0 0 0 0 0 0 0 0 0 0 0 0 0 0 0 0 0 0 0 0 0 0 0 0 0 0
0 0 0 0 0 0 0 0 0 0 0 0 0 0 0 0 0 0 0 0 0 0 0 0 0 0 0 0 0 0 0 0 0 0 0 0 0 0 0 0 0 0 0 0
Wind_Speed
5 7 13 14 14 6 4 6 8 6 4 6 12 15 11 8 8 10 10 10 10 11 10 9 9 10 9 9 10 11 11 10 8 6 7 7 7 6 5 6 7 8 8 8
5 14 12 7 8 8 8 8 8 4 3 5 8 14 11 11 12 12 13 13 12 10 7 7 8 8 9 10 10 11 11 10 9 9 7 5 4 4 5 4 6 8 8 8
13 7 8 9 9 11 12 12 9 5 3 3 4 10 10 10 10 11 12 11 11 12 11 9 8 9 9 9 10 10 11 10 10 9 5 3 3 2 3 5 6 7 8 8
10 9 7 10 11 12 14 10 7 6 4 5 4 8 9 8 10 13 13 11 12 11 10 9 8 8 9 10 8 8 8 8 8 8 7 8 7 8 8 6 5 5 6 7
8 7 9 12 12 10 6 5 7 8 7 7 6 7 10 6 12 14 14 13 12 11 10 10 9 9 8 8 7 7 6 6 6 7 9 9 7 7 4 3 4 5 5 5
7 4 7 8 7 8 4 2 2 3 4 12 13 10 11 8 13 10 11 12 11 10 9 8 7 6 6 6 6 6 6 6 6 7 7 8 8 7 5 5 5 5 4 4
6 7 5 3 4 6 7 6 4 5 8 11 8 10 13 9 9 11 11 11 10 9 8 8 7 6 6 6 6 6 7 6 6 6 7 7 8 7 7 6 5 4 3 4
7 7 8 7 9 8 10 11 9 8 7 5 6 12 11 9 8 8 8 8 8 8 7 7 7 6 6 6 6 6 6 6 5 6 6 6 6 5 4 5 4 4 4 4
6 6 3 6 6 9 8 9 6 3 2 4 7 7 9 5 6 6 5 5 5 5 5 5 5 5 6 6 6 6 6 5 4 5 5 4 4 4 4 4 4 3 3 2
4 4 4 3 3 6 7 6 5 6 6 8 7 7 7 6 7 6 5 5 5 4 3 3 3 4 4 4 4 4 4 4 3 3 3 3 3 3 3 3 3 3 2 2
3 3 2 2 7 9 6 7 6 5 6 6 6 8 6 7 6 6 6 5 4 3 2 2 2 2 3 3 4 4 4 3 3 2 3 3 2 2 2 2 2 2 2 2
4 3 3 6 5 4 5 6 7 7 6 5 6 8 3 2 3 3 3 3 2 2 2 2 3 3 3 3 3 3 3 3 3 3 3 3 2 2 2 2 2 2 2 2
3 3 1 3 3 1 4 4 5 4 3 5 6 9 4 2 4 2 1 1 1 1 1 1 1 2 2 2 2 3 3 3 2 3 3 3 2 2 2 2 2 2 2 2
2 3 5 8 5 3 5 6 5 5 6 7 10 11 9 6 4 4 3 2 2 2 2 2 2 2 2 2 2 2 2 3 3 3 4 3 3 3 2 2 3 2 3 2
2 4 5 6 5 4 6 9 9 10 10 9 10 12 12 8 6 5 4 3 3 3 2 3 3 2 2 2 2 2 2 2 3 4 4 3 3 3 3 3 3 3 3 3
2 3 3 5 6 6 8 11 12 13 11 11 12 15 10 6 5 5 4 3 4 5 5 4 2 2 2 3 3 3 3 3 4 4 3 3 3 3 4 3 3 4 4 3
2 3 2 5 4 2 10 12 13 10 9 10 14 15 7 5 6 7 6 6 6 6 6 5 4 3 3 2 2 3 3 3 4 4 3 3 3 3 3 3 4 3 3 3
5 4 3 2 1 9 11 4 8 10 12 11 11 10 9 9 8 6 6 6 7 6 5 4 3 3 2 2 2 2 3 3 4 4 3 3 3 3 3 3 3 3 3 3
8 6 4 3 5 9 9 5 7 8 10 9 11 12 9 7 4 5 4 5 6 6 4 3 3 2 2 3 3 4 4 3 3 3 2 2 3 3 3 3 3 3 3 3
7 7 5 4 5 9 10 6 4 4 9 8 8 9 8 3 5 8 4 3 3 2 2 2 2 3 3 3 4 4 3 3 2 2 2 2 2 3 3 3 3 3 3 3
4 6 8 8 8 10 9 4 3 6 9 6 6 7 6 7 8 5 1 1 2 1 2 3 3 3 3 3 4 4 3 2 2 2 2 2 2 3 3 3 3 4 4 4
8 6 7 6 8 12 5 4 7 8 5 3 4 5 5 6 5 3 2 2 1 1 2 3 3 2 2 3 4 4 3 2 3 3 3 2 2 2 3 4 4 4 4 4
8 8 6 9 10 6 3 6 6 4 5 5 4 5 4 4 4 4 3 2 2 2 2 3 3 3 2 2 3 4 2 3 3 4 3 2 2 2 2 4 4 4 3 3
5 4 5 7 10 9 8 6 5 4 5 5 4 4 3 4 5 4 3 3 2 2 3 3 3 3 2 2 2 2 2 3 4 4 4 3 3 2 2 2 3 3 3 3
7 4 6 10 10 8 8 7 6 4 4 4 4 3 4 4 4 4 3 3 2 2 2 3 3 4 3 2 2 2 2 3 4 4 4 3 3 2 2 2 2 2 2 3
7 7 8 11 8 7 8 5 4 4 4 4 4 4 3 3 4 3 3 2 2 2 2 3 3 3 2 2 2 2 2 3 4 4 3 3 3 2 2 2 2 4 4 5
Wind_Direction
192 197 212 208 209 223 204 209 224 225 223 208 232 246 247 244 240 237 236 235 234 233 232 223 214 207 200 196 194 195 195 197 189 188 193 199 209 208 208 210 208 208 210 208
199 226 223 206 208 224 228 238 241 261 246 223 246 256 254 239 235 231 230 232 232 235 238 227 217 206 199 197 196 196 197 195 193 198 196 193 190 201 209 207 210 211 211 211
211 227 194 201 208 217 228 225 225 229 315 282 274 274 253 246 238 241 235 230 227 223 224 224 217 208 200 200 199 197 198 196 198 195 175 160 158 174 199 212 217 216 212 211
233 242 214 205 214 208 234 224 219 216 223 253 219 266 257 236 241 239 238 232 230 227 221 216 210 206 201 204 199 195 194 193 194 184 179 184 194 207 214 211 211 207 207 211
227 205 204 215 216 201 230 191 203 215 221 250 235 255 267 230 236 238 236 234 232 226 218 216 210 200 198 197 190 188 182 185 186 182 186 189 202 215 214 197 202 208 209 212
246 232 209 216 212 202 200 174 217 211 211 241 224 225 262 218 222 231 232 231 228 225 220 215 205 190 192 190 182 179 173 182 183 181 185 190 200 205 198 202 207 213 213 215
238 238 226 194 185 195 185 172 201 215 219 238 201 217 248 227 223 222 228 230 227 218 209 203 199 194 190 183 182 179 176 184 185 181 188 194 200 200 203 206 207 207 210 217
206 229 209 194 193 193 199 189 196 204 214 243 198 225 249 236 230 232 230 224 221 216 205 200 199 191 185 180 177 175 177 183 183 183 191 195 198 198 204 206 203 204 211 216
210 237 222 205 187 176 189 210 207 214 247 249 235 255 284 262 240 232 226 219 223 216 205 200 198 191 184 178 177 176 173 173 178 182 183 187 193 194 195 197 199 201 205 201
198 243 256 231 180 206 193 172 176 199 204 233 246 239 239 238 230 231 227 224 232 226 206 195 187 181 175 168 163 156 160 167 170 172 177 174 183 187 188 181 184 190 193 191
204 216 267 195 199 197 182 189 203 205 206 207 242 252 227 220 218 215 224 220 213 207 196 182 168 150 134 127 134 139 140 139 140 150 159 157 164 170 171 169 172 177 168 158
201 191 236 239 249 219 199 195 193 212 230 224 244 258 262 237 250 215 217 221 207 187 184 183 170 147 138 135 130 126 125 127 136 134 127 128 125 121 125 131 133 129 132 133
174 179 222 312 304 228 205 206 203 209 220 229 233 259 278 319 323 317 261 250 223 165 112 120 145 156 157 149 138 129 126 126 121 120 122 119 116 113 116 116 106 103 106 100
179 196 204 213 222 205 221 227 210 199 223 237 237 258 282 292 303 306 307 292 271 224 186 186 198 198 181 161 149 138 131 128 125 119 121 121 121 121 118 106 96 96 99 97
164 217 232 251 256 229 242 240 227 223 223 229 245 248 259 263 262 268 270 263 262 254 239 223 217 208 188 169 159 149 141 131 123 118 116 118 112 104 100 94 89 87 84 85
190 220 226 260 252 242 258 249 236 234 230 234 250 258 257 258 258 270 269 253 254 252 245 242 225 200 200 192 175 159 153 141 126 125 126 118 109 103 98 93 92 90 88 86
208 183 194 259 273 269 254 236 225 223 219 215 236 250 253 251 236 234 242 244 243 242 234 227 219 207 199 199 176 165 151 126 121 119 112 107 108 106 102 102 99 99 97 92
205 193 195 230 131 235 245 216 214 227 240 232 238 249 238 239 242 235 223 224 238 243 237 227 209 200 181 139 117 113 106 113 117 114 112 113 114 113 109 108 107 104 100 99
203 194 192 190 228 263 282 247 200 214 248 242 244 254 257 255 270 262 237 227 231 231 221 208 190 179 146 128 121 118 119 122 124 125 130 134 133 131 127 123 117 111 106 100
201 196 195 196 216 239 251 251 223 194 254 249 239 252 257 244 249 259 243 235 235 220 178 155 132 120 124 120 117 117 128 130 138 138 139 129 132 135 134 127 115 108 112 110
179 201 213 217 231 253 256 252 142 191 245 249 233 243 245 231 239 255 253 234 219 179 141 127 122 123 128 122 120 123 124 134 115 97 102 107 119 127 128 115 109 112 111 109
193 198 209 205 222 247 243 164 189 229 252 251 249 246 241 246 252 252 240 213 191 160 133 132 132 127 111 122 131 130 135 111 98 105 107 107 111 123 126 124 118 118 122 120
213 205 203 206 226 245 215 221 238 239 245 253 248 255 240 242 241 235 232 213 197 186 174 145 140 132 109 106 130 141 134 114 118 117 118 117 112 112 129 136 134 131 134 139
248 226 220 244 252 255 258 258 264 255 252 260 252 249 233 241 243 239 227 222 210 189 172 155 148 152 152 113 101 120 125 126 133 134 131 129 126 122 118 128 135 144 151 149
228 220 235 252 264 277 264 249 255 265 269 273 272 249 234 227 239 235 233 235 224 189 165 163 170 169 162 129 113 109 115 126 135 136 134 132 132 137 126 114 126 140 139 157
211 213 229 249 251 250 266 267 261 257 261 261 270 281 267 229 232 232 237 233 209 179 155 154 160 160 153 139 132 123 127 139 145 143 141 140 143 140 133 123 105 107 115 114